Location: Menands
(42.6920°N, 73.7246°W)
Time: 07:41:25
(UTC+00:00)

PSLV R/B - Pass Details

Date: 18 February 2026
Orbit: 559 x 588 km, 98.0° (Epoch: 8 March)

Event Time Altitude Azimuth Distance (km) Brightness Sun altitude
Rises 22:56:33 0° 140° (SE) 2,786 6.6 -5.5°
Reaches altitude 10° 22:58:54 10° 130° (SE) 1,886 5.7 -5.9°
Maximum altitude 23:02:27 29° 69° (ENE) 1,059 4.2 -6.5°
Drops below altitude 10° 23:05:59 10° 9° (N) 1,883 5.9 -7.2°
Sets 23:08:19 0° 358° (N) 2,780 6.8 -7.6°
